Theta_e
315 314 313 314 314 315 316 316 314 315 315 316 315 314 314 316 316 316 317 317 317 317 317 317 317 317 316 318 319 323 326 325 324 324 326 328 326 326 327 326 326 329 328 330
315 314 314 315 317 316 316 315 314 314 314 315 314 313 313 314 315 316 317 317 317 317 317 317 317 318 317 316 316 321 323 323 319 320 321 323 323 324 324 322 321 323 326 329
316 316 315 316 316 316 315 314 314 314 315 313 313 313 314 315 315 315 316 317 317 317 317 317 318 317 317 317 316 316 318 318 318 319 321 323 326 326 325 319 317 318 321 326
315 315 315 315 315 314 314 314 314 315 314 313 315 313 313 312 312 314 317 317 317 316 316 317 317 317 318 317 317 316 315 317 318 318 318 319 318 318 316 315 314 314 314 316
314 313 314 315 315 314 314 314 315 315 315 315 315 313 312 311 313 313 315 317 317 317 317 317 318 317 317 317 317 316 315 315 315 315 315 316 316 316 315 314 314 313 313 312
314 312 314 315 312 313 313 315 315 315 314 312 312 313 311 312 314 315 316 317 317 317 317 317 316 317 317 316 316 316 315 314 313 314 314 314 314 314 314 314 314 313 312 311
314 313 313 313 313 313 315 314 313 315 314 314 313 312 312 314 313 314 314 316 316 315 316 315 315 315 315 315 315 314 314 313 313 313 313 313 313 313 313 314 313 313 312 311
312 312 313 311 313 314 313 313 314 313 316 313 311 312 312 314 315 316 315 315 315 315 315 315 315 314 314 315 316 315 314 313 312 312 312 312 312 312 313 313 312 312 312 311
313 313 312 311 312 313 314 313 313 313 305 311 312 312 312 313 313 314 315 315 315 314 315 315 315 314 314 314 314 315 315 314 313 313 312 312 312 312 312 312 312 312 311 311
313 314 312 310 312 312 312 312 314 312 312 312 312 312 312 312 313 312 312 316 316 315 315 315 315 314 314 314 313 315 315 314 314 313 313 313 312 312 311 311 311 311 311 311
313 313 312 311 311 312 312 312 313 312 312 313 312 311 313 313 314 315 315 315 315 314 313 313 314 314 313 314 314 314 315 314 314 314 313 314 314 313 312 311 311 311 311 310
313 314 312 312 311 310 312 311 312 312 312 310 312 314 314 312 313 315 314 315 315 315 316 315 314 314 315 315 315 315 316 316 316 315 314 315 315 314 313 312 311 311 310 310
312 313 310 313 313 310 311 311 312 312 310 313 313 313 310 312 314 315 315 315 315 315 315 315 314 314 315 315 316 316 316 314 314 315 315 314 315 315 315 314 312 311 310 309
312 314 313 314 317 315 315 314 312 313 314 313 313 313 313 312 311 312 314 315 315 315 315 314 314 314 314 315 315 315 314 314 313 313 314 314 315 314 314 314 312 311 309 308
310 313 313 313 313 313 314 315 316 318 315 314 313 312 313 312 311 313 314 315 315 315 315 315 315 314 314 314 314 314 314 313 313 312 313 314 314 314 313 312 312 311 309 307
309 310 311 308 310 311 311 312 313 314 316 317 316 314 313 313 314 313 314 314 315 315 315 315 315 315 314 314 313 313 313 313 312 312 312 312 312 312 313 311 310 310 309 307
307 309 311 308 309 308 311 310 311 312 312 314 315 314 313 313 313 313 313 314 314 314 315 315 315 315 314 313 313 313 312 311 311 311 311 311 310 309 309 309 309 308 308 307
304 305 307 304 302 306 307 308 310 312 312 312 313 314 313 313 313 313 314 314 314 314 314 314 314 313 313 312 312 311 311 311 310 311 312 311 310 308 307 306 306 306 305 306
305 304 302 298 296 301 302 302 303 306 306 307 309 309 307 307 308 311 311 310 308 308 309 310 311 311 311 311 311 311 311 310 310 310 310 310 309 307 306 305 304 303 303 304
301 304 304 297 301 297 303 305 307 307 308 304 305 305 305 306 307 308 310 308 308 308 307 307 308 307 308 309 309 308 309 309 309 309 309 307 306 305 304 302 301 301 301 302
303 302 303 303 304 303 302 304 307 306 304 303 303 304 304 304 306 306 307 307 306 306 306 306 306 307 307 306 307 308 308 307 307 307 307 306 304 303 301 299 298 298 298 298
301 301 300 304 305 304 305 305 307 303 303 303 301 302 304 305 305 307 306 306 305 305 305 305 305 305 305 305 304 306 304 305 305 304 303 303 302 300 299 298 297 296 295 297
298 297 296 299 298 305 304 303 302 302 302 302 303 305 305 305 306 306 305 305 304 303 304 303 304 304 303 304 303 302 302 301 302 301 300 299 298 297 297 296 295 295 294 295
298 299 297 297 298 299 300 301 300 300 301 302 303 304 305 304 303 302 303 304 303 302 302 302 302 303 302 300 299 299 299 299 298 299 297 296 295 294 294 294 294 294 294 294
296 296 295 296 298 299 300 300 300 301 302 302 300 301 303 302 300 301 302 302 302 302 301 300 301 301 301 300 297 296 296 295 295 295 295 294 293 293 293 292 292 292 292 292
296 296 296 297 298 298 298 298 298 299 299 299 300 299 300 299 300 300 300 299 299 298 297 297 298 299 299 298 297 295 293 292 292 293 293 292 293 293 293 293 292 291 291 292
Wind_Speed
6 4 6 9 10 7 3 5 8 5 3 2 7 11 10 20 24 20 22 24 26 28 28 26 28 31 31 36 35 37 39 40 39 39 40 40 41 38 37 35 36 39 36 34
3 6 8 6 3 3 1 6 8 8 6 2 7 12 12 13 22 28 28 28 28 29 28 28 30 32 33 34 38 39 41 42 40 40 41 42 40 39 39 38 38 40 40 38
6 2 11 5 3 3 6 7 7 8 2 6 4 8 10 11 28 28 29 32 31 32 31 26 26 33 35 34 36 41 43 43 42 40 41 41 40 40 42 43 42 41 42 42
7 9 2 4 5 7 6 3 8 5 5 3 2 6 7 10 9 9 22 25 28 26 24 22 23 25 35 35 32 36 40 42 42 40 42 43 45 45 45 43 41 39 41 43
4 6 7 5 5 7 3 4 3 1 3 5 4 4 7 9 7 9 11 23 23 21 17 16 15 21 28 29 33 31 34 39 42 43 43 43 44 44 43 42 40 39 38 41
2 2 2 3 4 3 7 4 2 1 2 6 9 8 4 7 4 2 3 5 2 3 6 9 13 19 21 26 29 30 31 35 39 42 43 44 45 45 44 43 42 40 38 38
6 6 3 2 5 5 2 5 1 2 0 7 3 3 9 7 8 4 5 13 11 16 11 11 13 13 16 20 24 27 29 31 34 38 41 42 43 43 43 42 43 42 39 38
9 6 11 7 8 8 8 7 5 7 4 5 4 9 6 3 3 6 8 15 19 18 15 17 20 18 15 15 18 20 23 26 29 32 36 38 39 41 42 41 44 44 42 39
5 8 4 6 2 8 6 7 7 4 2 3 5 10 12 7 6 8 16 18 18 17 14 15 17 15 19 20 19 18 18 18 22 24 27 30 32 36 38 39 42 44 43 39
2 3 2 3 3 4 3 1 2 2 3 5 7 7 11 10 14 9 6 8 10 13 15 14 11 12 16 17 14 14 13 13 13 16 19 21 23 27 30 34 39 42 42 39
4 4 0 4 6 7 2 4 3 2 5 5 5 7 5 6 5 6 8 11 11 11 11 13 6 10 10 10 9 8 7 7 9 12 15 17 18 21 24 29 33 36 38 37
1 2 5 6 2 3 3 6 10 4 4 3 5 16 2 1 3 4 8 8 9 11 14 14 16 16 12 9 7 3 4 9 14 16 18 18 19 20 23 27 30 32 35 34
2 1 3 7 3 2 4 4 6 8 2 13 7 13 7 5 5 4 7 8 6 12 13 19 22 26 24 21 17 14 16 15 17 20 20 23 24 24 24 25 27 31 34 33
5 2 5 5 4 5 3 9 5 5 5 14 14 24 24 16 11 21 27 26 27 17 24 19 23 24 21 24 23 24 28 28 27 26 25 25 27 29 28 28 28 30 32 32
3 4 4 14 13 12 7 9 12 12 13 15 23 18 30 19 13 23 30 28 27 29 29 32 37 35 27 28 27 28 30 32 30 29 29 28 28 32 34 33 32 32 31 30
6 2 2 5 7 11 17 16 14 15 17 14 22 20 23 30 29 29 29 28 26 28 32 34 35 31 29 29 29 29 32 34 32 34 35 35 36 37 39 36 34 35 32 28
3 3 2 5 5 3 5 16 16 17 19 18 20 25 19 20 22 28 25 32 38 38 37 32 29 32 32 26 25 29 32 31 31 31 30 31 32 36 37 35 34 34 32 29
5 3 1 5 5 7 9 8 6 4 7 9 17 19 22 19 28 31 29 29 24 24 24 25 25 25 27 28 29 29 27 26 27 26 24 24 25 28 32 34 34 33 31 31
14 6 3 3 4 10 15 17 6 5 14 10 5 10 19 22 22 23 10 23 23 22 23 23 22 22 22 23 25 26 26 26 26 26 27 27 26 25 26 29 30 30 30 30
13 13 7 1 4 6 6 3 8 4 5 6 2 5 11 18 7 6 28 32 28 23 22 24 23 21 21 23 23 23 22 22 23 23 23 23 21 22 22 22 24 26 26 26
5 10 17 14 11 6 10 6 1 5 10 10 10 13 17 4 11 29 32 30 28 27 27 25 24 26 25 22 21 21 22 22 21 21 20 19 18 18 16 16 17 19 21 21
8 7 5 7 8 12 10 4 7 2 9 16 20 26 24 23 27 29 29 28 27 26 27 27 27 25 23 22 22 22 22 19 19 19 18 16 15 14 13 11 13 13 14 16
6 7 4 7 5 3 6 3 14 8 15 25 25 25 21 21 24 27 30 29 29 26 25 26 28 27 24 23 22 20 20 20 17 16 14 12 12 11 10 8 7 8 9 10
4 7 6 4 12 21 27 27 24 25 25 24 17 17 16 24 29 30 30 30 29 29 28 26 25 26 23 21 20 19 18 17 16 13 11 8 7 6 5 5 6 6 6 6
5 4 3 6 13 16 20 22 23 23 18 18 21 23 21 24 30 29 30 31 30 33 31 28 26 25 22 21 19 18 16 13 12 8 6 4 3 4 5 5 6 6 6 6
11 11 6 11 18 16 21 33 31 23 26 29 30 26 26 28 29 30 32 28 29 30 29 27 25 23 20 18 16 14 10 7 5 3 4 6 8 9 10 10 12 12 12 11
Wind_Direction
203 200 196 212 224 252 355 321 330 347 132 159 236 261 259 271 271 261 257 253 251 251 252 251 247 249 244 235 233 229 230 234 233 228 227 229 232 235 235 230 229 227 232 235
134 225 233 229 29 7 172 286 289 287 115 157 276 275 268 259 261 253 253 255 254 257 256 250 245 244 245 244 234 230 232 235 237 233 234 234 238 241 244 245 237 236 232 230
207 92 218 130 143 177 234 236 258 256 174 213 287 270 259 248 242 256 256 257 260 256 257 254 244 239 244 247 241 235 235 238 240 237 234 236 237 240 241 245 244 241 240 238
229 232 162 161 214 178 254 296 240 288 337 255 46 288 294 308 289 231 245 250 257 266 265 260 246 247 242 253 254 244 237 235 239 239 237 238 239 240 245 247 251 247 244 239
216 176 170 179 176 189 212 17 45 14 290 292 205 263 260 232 260 256 259 263 267 267 267 256 256 242 248 249 251 249 245 239 238 240 240 240 241 244 248 250 251 251 247 241
72 5 281 171 58 34 124 92 87 136 206 275 176 201 226 223 237 258 241 329 0 291 253 259 250 248 245 246 247 249 249 244 240 240 240 240 243 244 244 248 250 250 249 244
184 190 126 115 88 37 189 150 253 304 147 238 78 284 235 311 305 209 281 294 288 302 280 294 293 278 251 247 248 251 249 245 240 239 242 242 243 246 248 249 253 253 252 248
199 219 150 188 203 170 199 186 172 203 198 265 354 241 254 178 21 315 302 298 299 301 305 303 303 280 258 247 250 248 245 242 240 241 243 245 245 248 252 251 255 258 256 254
201 225 87 151 166 160 193 206 234 318 60 10 229 272 291 265 227 268 280 290 294 308 313 304 301 280 270 263 257 254 252 248 245 247 248 250 252 252 253 254 255 260 261 256
240 268 3 55 69 303 167 253 126 246 186 227 261 271 246 311 299 293 312 17 356 333 322 323 305 273 259 267 257 253 252 251 249 249 252 256 257 257 258 256 256 261 264 261
145 190 106 117 197 175 133 228 230 161 187 183 255 257 178 131 98 62 40 359 340 339 349 1 314 300 280 269 255 243 250 274 281 271 260 261 263 264 262 260 260 262 264 260
148 300 216 207 130 17 240 236 206 185 242 230 230 264 95 315 91 65 338 6 353 13 6 18 22 12 349 314 276 256 5 327 315 295 274 266 265 265 265 264 262 264 264 264
341 276 56 328 279 56 250 210 239 238 272 252 230 259 118 104 73 43 332 312 297 309 318 324 324 328 329 326 305 286 281 286 311 288 281 275 272 268 269 271 267 266 263 261
82 5 199 211 98 42 353 334 298 271 241 259 248 266 274 274 301 303 304 305 302 280 309 309 306 309 311 310 302 291 293 295 297 290 276 281 280 271 269 267 265 265 265 260
75 200 236 268 290 311 281 261 275 262 278 253 262 258 275 280 290 303 298 299 304 305 303 300 301 302 300 300 298 294 297 300 292 284 279 276 279 283 275 268 267 267 264 257
143 239 236 268 261 266 273 263 247 250 251 249 264 267 264 285 287 285 287 295 300 305 300 297 293 295 298 298 291 288 291 289 285 281 277 278 275 269 268 265 265 267 266 259
152 159 175 262 101 353 281 245 248 248 244 246 254 262 274 278 282 290 302 297 293 296 296 293 297 300 299 294 291 287 290 288 284 282 281 278 276 273 270 265 265 264 262 259
165 160 140 273 47 259 242 268 244 265 279 265 250 259 270 296 307 305 303 301 311 310 304 300 297 292 290 289 288 287 284 283 282 285 287 286 281 274 270 268 266 262 258 256
210 173 243 205 205 278 306 285 271 250 286 300 359 341 334 339 336 306 338 343 338 331 323 319 315 308 302 298 296 295 295 292 289 288 286 285 282 275 270 267 267 263 261 258
217 212 199 188 215 222 233 157 50 240 288 14 29 293 312 340 343 297 317 323 320 325 328 324 315 312 307 304 303 304 304 303 300 296 291 285 279 275 273 269 265 264 261 258
166 211 217 227 239 259 251 276 312 220 271 327 308 321 304 267 284 298 305 310 311 314 317 316 314 312 311 308 306 306 306 306 306 302 298 291 284 277 270 262 259 260 258 256
172 178 193 216 233 252 196 131 175 227 304 303 300 298 285 288 295 295 304 303 305 314 313 312 310 308 308 308 308 309 303 305 306 305 301 295 288 279 271 261 256 254 251 251
244 211 188 176 208 206 162 317 308 316 303 306 293 287 273 278 278 292 295 300 305 310 307 308 309 310 310 309 304 304 308 305 306 301 295 293 287 275 260 248 242 239 238 241
252 220 224 253 259 265 278 288 295 307 295 290 279 288 286 285 290 291 294 298 306 313 312 309 306 306 310 312 310 311 308 304 297 293 287 276 266 258 253 227 202 186 185 208
220 1 254 267 271 278 274 282 292 302 298 275 288 283 274 287 290 293 295 300 306 307 309 307 304 301 304 310 315 313 309 301 288 271 252 225 200 170 164 141 114 107 105 107
249 249 257 265 275 288 287 287 288 289 286 285 289 287 286 298 291 296 298 306 307 306 305 304 300 297 298 300 300 300 295 284 267 224 175 158 142 133 126 129 128 116 107 106